ARSAT 2

Last updated on Wed Jul 09 2025 00:02:45 GMT+0000 (Coordinated Universal Time)

1 40941U 15054B 25189.40406979 -.00000208 00000+0 00000+0 0 9996 2 40941 0.0280 310.7269 0002308 146.7681 253.5560 1.00271507 35865
UTC large
Height (km)
Speed (km/s)
/
Latitude / Longitude
Inclination (degrees)
Orbital Period (minutes)
Azimuth
Elevation
Range (km)
Doppler Factor

Next 0 passes for location: London (51.5072 / 0.1276)

Sorry there are no passes over London.